Change the Weather History Date:

Tuesday, October 15, 2013

  Actual Average Record
Temperature  
Mean Temperature 66 °F -  
Max Temperature 76 °F 78 °F 77 °F (2014)
Min Temperature 56 °F 53 °F 49 °F (2014)
Cooling Degree Days 2    
Growing Degree Days 16 (Base 50)    
Moisture  
Dew Point 67 °F    
Average Humidity 93    
Maximum Humidity 96    
Minimum Humidity 91    
Precipitation  
Precipitation 0.00 in - - ()
Sea Level Pressure  
Sea Level Pressure 29.96 in    
Wind  
Wind Speed 7 mph (NW)    
Max Wind Speed 12 mph    
Max Gust Speed 18 mph    
Visibility 8 miles    
Events Rain    
Averages and records for this station are not official NWS values.
T = Trace of Precipitation, MM = Missing Value Source: NWS Daily Summary

Daily Weather History Graph

Daily Weather History Graph

Search for Another Location

Airport or City:

Trip Planner

Search our weather history database for the weather conditions in past years. The results will help you decide how hot, cold, wet, or windy it might be!

Date:

Astronomy

Oct. 15, 2013 Rise Set
Actual Time 7:27 AM CDT 6:47 PM CDT
Civil Twilight 7:02 AM CDT 7:12 PM CDT
Nautical Twilight 6:33 AM CDT 7:41 PM CDT
Astronomical Twilight 6:04 AM CDT 8:10 PM CDT
Moon 4:46 PM CDT (10/15) 4:00 AM CDT (10/15)
Length of Visible Light 12h 10m
Length of Day
11h 20m
Waxing Gibbous, 88% of the Moon is Illuminated
Oct 15
Waxing Gibbous
Oct 18
Full
Oct 26
Last Quarter
Nov 3
New
Nov 9
First Quarter

Hourly Weather History & Observations

Time (CDT) Temp. Dew Point Humidity Pressure Visibility Wind Dir Wind Speed Gust Speed Precip Events Conditions
12:15 AM 73.0 °F 71.8 °F 96% 29.96 in 4.0 mi SSE 4.6 mph - N/A   Overcast
12:35 AM 73.4 °F 72.0 °F 95% 29.95 in 4.0 mi SSE 6.9 mph - N/A   Overcast
12:55 AM 73.6 °F 72.1 °F 95% 29.95 in 4.0 mi SSE 5.8 mph - N/A   Light Drizzle
1:15 AM 73.9 °F 72.5 °F 95% 29.95 in 5.0 mi SSE 4.6 mph - N/A   Overcast
1:35 AM 74.3 °F 72.7 °F 95% 29.95 in 5.0 mi South 8.1 mph - N/A   Overcast
1:55 AM 74.3 °F 72.7 °F 95% 29.95 in 5.0 mi South 8.1 mph - N/A   Overcast
2:35 AM 74.3 °F 72.5 °F 94% 29.95 in 7.0 mi South 5.8 mph - N/A   Overcast
2:55 AM 74.3 °F 72.5 °F 94% 29.94 in 5.0 mi South 6.9 mph - N/A Rain Light Rain
3:15 AM 74.3 °F 72.5 °F 94% 29.94 in 7.0 mi South 4.6 mph - N/A   Light Drizzle
3:35 AM 74.3 °F 72.5 °F 94% 29.93 in 7.0 mi South 5.8 mph - N/A   Overcast
3:55 AM 74.3 °F 72.5 °F 94% 29.93 in 7.0 mi SSE 5.8 mph - N/A   Overcast
4:15 AM 74.5 °F 72.5 °F 94% 29.93 in 7.0 mi South 6.9 mph - N/A   Overcast
4:35 AM 75.0 °F 72.7 °F 92% 29.93 in 10.0 mi SSW 10.4 mph 18.4 mph N/A   Overcast
4:55 AM 74.8 °F 72.7 °F 93% 29.92 in 7.0 mi South 9.2 mph - N/A   Overcast
5:15 AM 75.2 °F 72.9 °F 92% 29.92 in 10.0 mi SSW 9.2 mph 18.4 mph N/A   Overcast
5:35 AM 75.2 °F 72.9 °F 92% 29.92 in 10.0 mi SSW 6.9 mph - N/A   Overcast
5:55 AM 74.8 °F 72.9 °F 94% 29.91 in 7.0 mi South 9.2 mph - N/A   Mostly Cloudy
6:15 AM 75.2 °F 73.0 °F 93% 29.91 in 7.0 mi SSW 8.1 mph - N/A   Mostly Cloudy
6:35 AM 75.2 °F 73.4 °F 94% 29.91 in 10.0 mi SSW 6.9 mph - N/A   Overcast
6:55 AM 75.2 °F 73.4 °F 94% 29.92 in 10.0 mi SW 9.2 mph - N/A   Overcast
7:15 AM 75.4 °F 73.4 °F 94% 29.91 in 10.0 mi SSW 9.2 mph - N/A   Overcast
7:35 AM 75.4 °F 73.4 °F 94% 29.92 in 10.0 mi SSW 9.2 mph - N/A   Overcast
7:55 AM 75.4 °F 73.4 °F 94% 29.92 in 7.0 mi SSW 9.2 mph - N/A   Overcast
8:15 AM 75.6 °F 73.4 °F 93% 29.93 in 7.0 mi SW 9.2 mph - N/A   Overcast
8:35 AM 75.6 °F 73.4 °F 93% 29.92 in 7.0 mi SSW 10.4 mph - N/A Rain Light Rain
8:55 AM 76.1 °F 73.6 °F 92% 29.92 in 7.0 mi SSW 8.1 mph - N/A   Overcast
9:15 AM 76.3 °F 73.8 °F 92% 29.93 in 10.0 mi SSW 8.1 mph - N/A   Overcast
9:35 AM 76.3 °F 73.6 °F 91% 29.93 in 7.0 mi SSW 6.9 mph - N/A Rain Rain
9:55 AM 75.9 °F 73.8 °F 93% 29.93 in 5.0 mi SSW 8.1 mph - N/A Rain Light Rain
10:15 AM 75.7 °F 73.9 °F 94% 29.95 in 3.0 mi NW 5.8 mph - N/A Rain Heavy Rain
10:35 AM 72.0 °F 69.8 °F 93% 29.95 in 5.0 mi North 9.2 mph 17.3 mph N/A Rain Rain
10:55 AM 71.6 °F 69.8 °F 94% 29.96 in 5.0 mi North 4.6 mph - N/A Rain Heavy Rain
11:15 AM 70.9 °F 69.1 °F 94% 29.97 in 3.0 mi North 9.2 mph - N/A Rain Rain
11:35 AM 70.9 °F 68.9 °F 93% 29.97 in 10.0 mi North 6.9 mph - N/A Rain Light Rain
11:55 AM 71.1 °F 68.9 °F 93% 29.98 in 10.0 mi North 6.9 mph - N/A Rain Rain
12:15 PM 70.9 °F 69.1 °F 94% 29.98 in 5.0 mi North 4.6 mph - N/A Rain Heavy Rain
12:35 PM 70.2 °F 68.4 °F 94% 29.98 in 5.0 mi North 6.9 mph - N/A Rain Rain
12:55 PM 68.5 °F 66.4 °F 93% 29.98 in 10.0 mi North 9.2 mph - N/A Rain Light Rain
1:15 PM 68.2 °F 66.2 °F 93% 29.98 in 10.0 mi North 10.4 mph - N/A Rain Light Rain
1:35 PM 68.2 °F 66.2 °F 93% 29.96 in 10.0 mi North 9.2 mph - N/A Rain Rain
1:55 PM 67.3 °F 65.3 °F 93% 29.94 in 10.0 mi North 10.4 mph - N/A Rain Light Rain
2:15 PM 67.1 °F 64.9 °F 93% 29.94 in 10.0 mi North 9.2 mph - N/A Rain Light Rain
2:35 PM 67.1 °F 64.8 °F 92% 29.95 in 10.0 mi North 8.1 mph - N/A Rain Light Rain
2:55 PM 67.1 °F 64.8 °F 92% 29.96 in 10.0 mi NNW 6.9 mph - N/A Rain Light Rain
3:15 PM 66.2 °F 64.4 °F 94% 29.95 in 10.0 mi North 9.2 mph - N/A Rain Light Rain
3:35 PM 65.3 °F 63.3 °F 93% 29.96 in 10.0 mi NNW 11.5 mph - N/A Rain Light Rain
3:55 PM 64.8 °F 62.8 °F 93% 29.97 in 10.0 mi NNW 9.2 mph 17.3 mph N/A Rain Light Rain
4:15 PM 64.4 °F 62.2 °F 93% 29.96 in 10.0 mi North 8.1 mph - N/A Rain Rain
4:35 PM 63.7 °F 61.7 °F 93% 29.97 in 10.0 mi NNW 9.2 mph - N/A Rain Light Rain
4:55 PM 63.5 °F 61.3 °F 93% 29.98 in 10.0 mi NNW 6.9 mph - N/A Rain Light Rain
5:15 PM 62.8 °F 60.8 °F 93% 29.98 in 10.0 mi NNW 8.1 mph - N/A Rain Light Rain
5:35 PM 62.2 °F 60.3 °F 93% 29.97 in 10.0 mi North 9.2 mph - N/A Rain Light Rain
5:55 PM 62.1 °F 60.1 °F 93% 29.98 in 10.0 mi NNW 10.4 mph - N/A Rain Light Rain
6:15 PM 61.7 °F 59.5 °F 93% 29.99 in 10.0 mi NNW 9.2 mph - N/A Rain Rain
6:35 PM 60.4 °F 58.6 °F 94% 29.99 in 10.0 mi NNW 10.4 mph - N/A Rain Light Rain
6:55 PM 60.3 °F 58.5 °F 94% 30.00 in 10.0 mi NNW 9.2 mph - N/A Rain Light Rain
7:15 PM 59.9 °F 57.7 °F 93% 30.00 in 10.0 mi North 8.1 mph - N/A Rain Light Rain
7:55 PM 59.9 °F 58.1 °F 94% 30.01 in 10.0 mi North 6.9 mph - N/A Rain Rain
8:15 PM 59.9 °F 58.1 °F 94% 30.02 in 10.0 mi NNW 8.1 mph - N/A Rain Rain
8:35 PM 59.7 °F 57.9 °F 94% 30.02 in 10.0 mi North 8.1 mph - N/A Rain Light Rain
8:55 PM 59.2 °F 56.8 °F 92% 30.01 in 10.0 mi North 9.2 mph - N/A Rain Rain
9:15 PM 58.8 °F 56.7 °F 93% 30.02 in 10.0 mi North 6.9 mph - N/A Rain Light Rain
9:35 PM 58.8 °F 56.8 °F 93% 30.04 in 10.0 mi NNW 8.1 mph - N/A Rain Rain
9:55 PM 58.6 °F 56.8 °F 94% 30.04 in 10.0 mi North 10.4 mph - N/A Rain Light Rain
10:15 PM 58.3 °F 56.5 °F 94% 30.05 in 10.0 mi NNW 9.2 mph - N/A Rain Light Rain
10:35 PM 57.7 °F 55.9 °F 94% 30.06 in 10.0 mi North 11.5 mph 16.1 mph N/A Rain Light Rain
10:55 PM 57.6 °F 55.4 °F 92% 30.04 in 10.0 mi North 8.1 mph - N/A Rain Light Rain
11:15 PM 57.2 °F 54.9 °F 92% 30.03 in 10.0 mi North 9.2 mph - N/A Rain Light Rain
11:35 PM 57.2 °F 54.9 °F 92% 30.03 in 10.0 mi North 10.4 mph 16.1 mph N/A Rain Rain
11:55 PM 56.7 °F 54.1 °F 91% 30.04 in 10.0 mi North 11.5 mph 16.1 mph N/A Rain Light Rain